Location: Les Chemineaux
(47.3024°N, 1.5104°E)
Time: 22:41:26
(UTC+00:00)

Cosmos 2322 Rocket - Pass Details

Date: 19 May 2025
Orbit: 832 x 850 km, 71.0° (Epoch: 12 June)

Event Time Altitude Azimuth Distance (km) Brightness Sun altitude
Rises 22:49:42 0° 336° (NNW) 3,416 6.8 -21.3°
Reaches altitude 10° 22:52:17 10° 342° (NNW) 2,475 5.8 -21.5°
Maximum altitude 22:57:43 45° 55° (NE) 1,143 3.0 -21.7°
Enters shadow 23:00:25 27° 111° (ESE) 1,579 3.3 -21.8°
